When you browse on this site, cookies collect data to enhance your experience and personalize the content and advertising you see.
Visit our Privacy Policy to learn more. By continuing to use the site, you agree to this use of cookies and data.
  • In Hungary
  • List of Countries
  • For 7 days
  • Water Temperature
  • Weather Map
  • News
  • Weather Widgets
  • user-avatar
    Login

    Hourly Weather Elisenvaara

    Today, 18 August, Sunday

    Time Temperature Precipitation Wind Pressure Humidity
    00:00 +13°C° 0 mm 2 mps 756 mmHg 75%
    01:00 +13°C° 0 mm 2 mps 756 mmHg 75%
    02:00 +13°C° 0 mm 2 mps 757 mmHg 75%
    03:00 +13°C° 0 mm 2 mps 757 mmHg 76%
    04:00 +12°C° 0 mm 2 mps 757 mmHg 77%
    05:00 +12°C° 0 mm 2 mps 757 mmHg 77%
    06:00 +14°C° 0 mm 2 mps 756 mmHg 71%
    07:00 +16°C° 0 mm 2 mps 756 mmHg 65%
    08:00 +19°C° 0 mm 3 mps 756 mmHg 59%
    09:00 +20°C° 0 mm 3 mps 756 mmHg 54%
    10:00 +20°C° 0 mm 4 mps 756 mmHg 50%
    11:00 +21°C° 0 mm 4 mps 756 mmHg 45%
    12:00 +22°C° 0 mm 4 mps 755 mmHg 44%
    13:00 +22°C° 0 mm 4 mps 755 mmHg 43%
    14:00 +22°C° 0 mm 4 mps 755 mmHg 43%
    15:00 +22°C° 0 mm 3 mps 755 mmHg 44%
    16:00 +21°C° 0 mm 3 mps 754 mmHg 46%
    17:00 +21°C° 0 mm 3 mps 754 mmHg 47%
    18:00 +19°C° 0 mm 2 mps 754 mmHg 55%
    19:00 +17°C° 0 mm 2 mps 754 mmHg 63%
    20:00 +15°C° 0 mm 2 mps 754 mmHg 71%
    21:00 +15°C° 0 mm 2 mps 754 mmHg 72%
    22:00 +14°C° 0 mm 2 mps 754 mmHg 74%
    23:00 +14°C° 0 mm 2 mps 753 mmHg 75%

    Tomorrow, 19 August, Monday

    Time Temperature Precipitation Wind Pressure Humidity
    00:00 +14°C° 0 mm 2 mps 753 mmHg 78%
    01:00 +14°C° 0 mm 2 mps 753 mmHg 81%
    02:00 +14°C° 0 mm 2 mps 753 mmHg 84%
    03:00 +13°C° 0 mm 3 mps 753 mmHg 87%
    04:00 +12°C° 0 mm 3 mps 752 mmHg 91%
    05:00 +12°C° 0 mm 3 mps 752 mmHg 94%
    06:00 +14°C° 0 mm 3 mps 752 mmHg 87%
    07:00 +17°C° 0 mm 3 mps 752 mmHg 81%
    08:00 +18°C° 0 mm 3 mps 752 mmHg 74%
    09:00 +19°C° 0 mm 4 mps 752 mmHg 69%
    10:00 +20°C° 0 mm 4 mps 751 mmHg 63%
    11:00 +21°C° 0 mm 4 mps 751 mmHg 58%
    12:00 +21°C° 0 mm 4 mps 751 mmHg 61%
    13:00 +20°C° 0 mm 4 mps 751 mmHg 64%
    14:00 +20°C° 0 mm 4 mps 751 mmHg 67%
    15:00 +19°C° 0 mm 4 mps 751 mmHg 71%
    16:00 +19°C° 0 mm 3 mps 751 mmHg 76%
    17:00 +19°C° 0 mm 3 mps 752 mmHg 80%
    18:00 +18°C° 0 mm 3 mps 752 mmHg 85%
    19:00 +18°C° 0 mm 3 mps 752 mmHg 90%
    20:00 +17°C° 0 mm 2 mps 752 mmHg 94%
    21:00 +17°C° 0 mm 2 mps 752 mmHg 95%
    22:00 +16°C° 0 mm 2 mps 752 mmHg 96%
    23:00 +16°C° 0 mm 2 mps 753 mmHg 96%

    Day after tomorrow, 20 August, Tuesday

    Time Temperature Precipitation Wind Pressure Humidity
    00:00 +15°C° 0 mm 2 mps 753 mmHg 97%
    01:00 +15°C° 0 mm 2 mps 753 mmHg 97%
    02:00 +14°C° 0 mm 2 mps 754 mmHg 97%
    03:00 +14°C° 0 mm 2 mps 754 mmHg 97%
    04:00 +13°C° 0 mm 2 mps 754 mmHg 97%
    05:00 +13°C° 0 mm 2 mps 754 mmHg 97%
    06:00 +15°C° 0 mm 2 mps 755 mmHg 88%
    07:00 +16°C° 0 mm 2 mps 755 mmHg 80%
    08:00 +18°C° 0 mm 3 mps 755 mmHg 71%
    09:00 +19°C° 0 mm 3 mps 756 mmHg 65%
    10:00 +21°C° 0 mm 3 mps 756 mmHg 58%
    11:00 +22°C° 0 mm 3 mps 756 mmHg 52%
    12:00 +23°C° 0 mm 4 mps 756 mmHg 50%
    13:00 +23°C° 0 mm 4 mps 756 mmHg 49%
    14:00 +25°C° 0 mm 4 mps 757 mmHg 47%
    15:00 +23°C° 0 mm 4 mps 757 mmHg 50%
    16:00 +22°C° 0 mm 5 mps 757 mmHg 52%
    17:00 +22°C° 0 mm 5 mps 757 mmHg 55%
    18:00 +20°C° 0 mm 4 mps 757 mmHg 59%
    19:00 +18°C° 0 mm 4 mps 757 mmHg 63%
    20:00 +17°C° 0 mm 4 mps 757 mmHg 67%
    21:00 +15°C° 0 mm 4 mps 758 mmHg 71%
    22:00 +14°C° 0 mm 4 mps 758 mmHg 75%
    23:00 +14°C° 0 mm 3 mps 759 mmHg 79%

    21 August, Wednesday

    Time Temperature Precipitation Wind Pressure Humidity
    00:00 +13°C° 0 mm 3 mps 759 mmHg 83%
    01:00 +13°C° 0 mm 3 mps 759 mmHg 88%
    02:00 +12°C° 0 mm 3 mps 760 mmHg 93%
    03:00 +12°C° 0 mm 3 mps 760 mmHg 94%
    04:00 +11°C° 0 mm 3 mps 760 mmHg 95%
    05:00 +11°C° 0 mm 3 mps 760 mmHg 97%
    06:00 +13°C° 0 mm 3 mps 760 mmHg 88%
    07:00 +16°C° 0 mm 3 mps 760 mmHg 79%
    08:00 +18°C° 0 mm 3 mps 761 mmHg 70%
    09:00 +19°C° 0 mm 3 mps 761 mmHg 64%
    10:00 +20°C° 0 mm 3 mps 761 mmHg 58%
    11:00 +21°C° 0 mm 3 mps 761 mmHg 52%
    12:00 +22°C° 0 mm 3 mps 761 mmHg 49%
    13:00 +22°C° 0 mm 3 mps 761 mmHg 47%
    14:00 +22°C° 0 mm 3 mps 760 mmHg 44%
    15:00 +22°C° 0 mm 3 mps 760 mmHg 47%
    16:00 +21°C° 0 mm 3 mps 760 mmHg 50%
    17:00 +21°C° 0 mm 3 mps 759 mmHg 54%
    18:00 +19°C° 0 mm 2 mps 759 mmHg 61%
    19:00 +18°C° 0 mm 2 mps 759 mmHg 68%
    20:00 +16°C° 0 mm 2 mps 759 mmHg 75%
    21:00 +16°C° 0.1 mm 2 mps 759 mmHg 80%
    22:00 +15°C° 0.1 mm 2 mps 759 mmHg 84%
    23:00 +15°C° 0.1 mm 2 mps 759 mmHg 88%

    22 August, Thursday

    Time Temperature Precipitation Wind Pressure Humidity
    00:00 +15°C° 0.1 mm 2 mps 759 mmHg 89%
    01:00 +15°C° 0.1 mm 2 mps 759 mmHg 90%
    02:00 +15°C° 0.1 mm 2 mps 759 mmHg 92%
    03:00 +14°C° 0.2 mm 2 mps 759 mmHg 92%
    04:00 +14°C° 0.2 mm 2 mps 758 mmHg 92%
    05:00 +14°C° 0.2 mm 1 mps 758 mmHg 93%
    06:00 +15°C° 0.1 mm 2 mps 758 mmHg 90%
    07:00 +16°C° 0.1 mm 2 mps 758 mmHg 87%
    08:00 +16°C° 0.1 mm 2 mps 759 mmHg 84%
    09:00 +17°C° 0.1 mm 3 mps 759 mmHg 73%
    10:00 +19°C° 0.1 mm 3 mps 759 mmHg 62%
    11:00 +20°C° 0.1 mm 3 mps 759 mmHg 50%
    12:00 +20°C° 0 mm 3 mps 759 mmHg 49%
    13:00 +21°C° 0 mm 4 mps 759 mmHg 47%
    14:00 +21°C° 0 mm 4 mps 759 mmHg 46%
    15:00 +21°C° 0 mm 4 mps 759 mmHg 47%
    16:00 +21°C° 0 mm 3 mps 759 mmHg 47%
    17:00 +21°C° 0 mm 3 mps 759 mmHg 48%
    18:00 +19°C° 0 mm 3 mps 759 mmHg 54%
    19:00 +18°C° 0 mm 3 mps 759 mmHg 60%
    20:00 +16°C° 0 mm 2 mps 759 mmHg 66%
    21:00 +15°C° 0 mm 2 mps 760 mmHg 67%
    22:00 +14°C° 0 mm 2 mps 760 mmHg 69%
    23:00 +13°C° 0 mm 2 mps 760 mmHg 70%

    23 August, Friday

    Time Temperature Precipitation Wind Pressure Humidity
    00:00 +13°C° 0 mm 2 mps 760 mmHg 71%
    01:00 +12°C° 0 mm 2 mps 761 mmHg 72%
    02:00 +12°C° 0 mm 1 mps 761 mmHg 73%
    03:00 +11°C° 0 mm 1 mps 761 mmHg 74%
    04:00 +11°C° 0 mm 1 mps 761 mmHg 76%
    05:00 +11°C° 0 mm 1 mps 761 mmHg 77%
    06:00 +13°C° 0 mm 1 mps 761 mmHg 70%
    07:00 +15°C° 0 mm 1 mps 761 mmHg 63%
    08:00 +16°C° 0 mm 0 mps 762 mmHg 56%
    09:00 +19°C° 0 mm 1 mps 762 mmHg 51%
    10:00 +20°C° 0 mm 1 mps 762 mmHg 47%
    11:00 +21°C° 0 mm 1 mps 762 mmHg 42%
    12:00 +22°C° 0 mm 1 mps 762 mmHg 41%
    13:00 +22°C° 0 mm 1 mps 762 mmHg 39%
    14:00 +22°C° 0 mm 1 mps 762 mmHg 38%
    15:00 +22°C° 0 mm 1 mps 762 mmHg 40%
    16:00 +22°C° 0 mm 1 mps 762 mmHg 41%
    17:00 +21°C° 0 mm 1 mps 762 mmHg 43%
    18:00 +19°C° 0 mm 1 mps 762 mmHg 51%
    19:00 +16°C° 0 mm 1 mps 762 mmHg 59%
    20:00 +14°C° 0 mm 1 mps 762 mmHg 66%
    21:00 +13°C° 0 mm 1 mps 762 mmHg 70%
    22:00 +13°C° 0 mm 1 mps 762 mmHg 73%
    23:00 +12°C° 0 mm 1 mps 763 mmHg 76%
    Show more